TimeMST,TemperatureF,Dew PointF,Humidity,Sea Level PressureIn,VisibilityMPH,Wind Direction,Wind SpeedMPH,Gust SpeedMPH,PrecipitationIn,Events,Conditions,WindDirDegrees,DateUTC
12:53 AM,8.1,6.1,92,30.14,10.0,NW,5.8,-,N/A,,Clear,310,2013-02-19 07:53:00
1:53 AM,8.1,3.9,83,30.12,10.0,Calm,Calm,-,N/A,,Clear,0,2013-02-19 08:53:00
2:53 AM,7.0,5.0,92,30.09,10.0,SE,4.6,-,N/A,,Clear,140,2013-02-19 09:53:00
3:53 AM,3.9,1.0,88,30.09,10.0,Calm,Calm,-,N/A,,Clear,0,2013-02-19 10:53:00
4:53 AM,3.0,-0.9,84,30.07,10.0,WSW,4.6,-,N/A,,Clear,250,2013-02-19 11:53:00
5:53 AM,3.0,-0.9,84,30.09,10.0,Calm,Calm,-,N/A,,Clear,0,2013-02-19 12:53:00
6:53 AM,1.9,-2.9,80,30.08,10.0,Calm,Calm,-,N/A,,Clear,0,2013-02-19 13:53:00
7:53 AM,1.9,-0.9,88,30.08,10.0,Calm,Calm,-,N/A,,Clear,0,2013-02-19 14:53:00
8:53 AM,5.0,1.0,84,30.06,10.0,North,3.5,-,N/A,,Partly Cloudy,350,2013-02-19 15:53:00
9:53 AM,10.0,8.1,92,30.04,10.0,Calm,Calm,-,N/A,,Clear,0,2013-02-19 16:53:00
11:53 AM,18.0,12.0,78,29.97,10.0,Calm,Calm,-,N/A,,Clear,0,2013-02-19 18:53:00
12:53 PM,21.9,10.9,63,29.94,10.0,Calm,Calm,-,N/A,,Clear,0,2013-02-19 19:53:00
1:53 PM,26.1,12.0,55,29.88,10.0,Calm,Calm,-,N/A,,Clear,0,2013-02-19 20:53:00
2:53 PM,28.9,18.0,64,29.86,10.0,NNW,4.6,-,N/A,,Clear,340,2013-02-19 21:53:00
3:53 PM,28.9,16.0,58,29.86,10.0,WNW,5.8,-,N/A,,Clear,300,2013-02-19 22:53:00
5:53 PM,23.0,15.1,72,29.86,10.0,NW,5.8,-,N/A,,Clear,310,2013-02-20 00:53:00
6:53 PM,19.0,12.9,77,29.88,10.0,NW,3.5,-,N/A,,Clear,310,2013-02-20 01:53:00
7:53 PM,17.1,10.9,77,29.90,10.0,West,5.8,-,N/A,,Clear,260,2013-02-20 02:53:00
8:53 PM,17.1,10.9,77,29.89,10.0,West,3.5,-,N/A,,Clear,270,2013-02-20 03:53:00
9:53 PM,15.1,10.9,84,29.88,10.0,Calm,Calm,-,N/A,,Clear,0,2013-02-20 04:53:00
10:53 PM,15.1,10.0,80,29.86,10.0,Calm,Calm,-,N/A,,Clear,0,2013-02-20 05:53:00
11:53 PM,12.9,9.0,84,29.86,10.0,Calm,Calm,-,N/A,,Clear,0,2013-02-20 06:53:00